Year,Month,Day,Hour,Minute,Value (Times are PST for temperature in C)
2013,07,23,00,00,17.10
2013,07,23,00,01,17.10
2013,07,23,00,02,17.10
2013,07,23,00,03,17.10
2013,07,23,00,04,17.10
2013,07,23,00,05,17.10
2013,07,23,00,06,17.10
2013,07,23,00,07,17.00
2013,07,23,00,08,17.00
2013,07,23,00,09,17.00
2013,07,23,00,10,17.00
2013,07,23,00,11,17.00
2013,07,23,00,12,16.90
2013,07,23,00,13,16.90
2013,07,23,00,14,16.90
2013,07,23,00,15,16.90
2013,07,23,00,16,16.90
2013,07,23,00,17,16.90
2013,07,23,00,18,16.90
2013,07,23,00,19,16.80
2013,07,23,00,20,16.80
2013,07,23,00,21,16.80
2013,07,23,00,22,16.80
2013,07,23,00,23,16.80
2013,07,23,00,24,16.80
2013,07,23,00,25,16.80
2013,07,23,00,26,16.80
2013,07,23,00,27,16.80
2013,07,23,00,28,16.70
2013,07,23,00,29,16.70
2013,07,23,00,30,16.70
2013,07,23,00,31,16.70
2013,07,23,00,32,16.70
2013,07,23,00,33,16.70
2013,07,23,00,34,16.70
2013,07,23,00,35,16.60
2013,07,23,00,36,16.60
2013,07,23,00,37,16.60
2013,07,23,00,38,16.60
2013,07,23,00,39,16.60
2013,07,23,00,40,16.60
2013,07,23,00,41,16.60
2013,07,23,00,42,16.60
2013,07,23,00,43,16.60
2013,07,23,00,44,16.60
2013,07,23,00,45,16.60
2013,07,23,00,46,16.60
2013,07,23,00,47,16.60
2013,07,23,00,48,16.60
2013,07,23,00,49,16.60
2013,07,23,00,50,16.60
2013,07,23,00,51,16.60
2013,07,23,00,52,16.60
2013,07,23,00,53,16.50
2013,07,23,00,54,16.50
2013,07,23,00,55,16.50
2013,07,23,00,56,16.50
2013,07,23,00,57,16.40
2013,07,23,00,58,16.40
2013,07,23,00,59,16.40
2013,07,23,01,00,16.40
2013,07,23,01,01,16.40
2013,07,23,01,02,16.40
2013,07,23,01,03,16.40
2013,07,23,01,04,16.40
2013,07,23,01,05,16.30
2013,07,23,01,06,16.30
2013,07,23,01,07,16.30
2013,07,23,01,08,16.30
2013,07,23,01,09,16.30
2013,07,23,01,10,16.30
2013,07,23,01,11,16.30
2013,07,23,01,12,16.30
2013,07,23,01,13,16.30
2013,07,23,01,14,16.30
2013,07,23,01,15,16.30
2013,07,23,01,16,16.30
2013,07,23,01,17,16.30
2013,07,23,01,18,16.30
2013,07,23,01,19,16.30
2013,07,23,01,20,16.30
2013,07,23,01,21,16.30
2013,07,23,01,22,16.30
2013,07,23,01,23,16.30
2013,07,23,01,24,16.30
2013,07,23,01,25,16.30
2013,07,23,01,26,16.20
2013,07,23,01,27,16.20
2013,07,23,01,28,16.20
2013,07,23,01,29,16.20
2013,07,23,01,30,16.20
2013,07,23,01,31,16.20
2013,07,23,01,32,16.20
2013,07,23,01,33,16.10
2013,07,23,01,34,16.10
2013,07,23,01,35,16.10
2013,07,23,01,36,16.10
2013,07,23,01,37,16.00
2013,07,23,01,38,16.00
2013,07,23,01,39,16.00
2013,07,23,01,40,16.00
2013,07,23,01,41,15.90
2013,07,23,01,42,15.90
2013,07,23,01,43,15.90
2013,07,23,01,44,15.90
2013,07,23,01,45,15.90
2013,07,23,01,46,15.90
2013,07,23,01,47,15.90
2013,07,23,01,48,15.90
2013,07,23,01,49,15.80
2013,07,23,01,50,15.80
2013,07,23,01,51,15.80
2013,07,23,01,52,15.80
2013,07,23,01,53,15.80
2013,07,23,01,54,15.80
2013,07,23,01,55,15.80
2013,07,23,01,56,15.80
2013,07,23,01,57,15.70
2013,07,23,01,58,15.70
2013,07,23,01,59,15.70
2013,07,23,02,00,15.70
2013,07,23,02,01,15.70
2013,07,23,02,02,15.70
2013,07,23,02,03,15.70
2013,07,23,02,04,15.70
2013,07,23,02,05,15.70
2013,07,23,02,06,15.70
2013,07,23,02,07,15.70
2013,07,23,02,08,15.70
2013,07,23,02,09,15.70
2013,07,23,02,10,15.70
2013,07,23,02,11,15.70
2013,07,23,02,12,15.70
2013,07,23,02,13,15.70
2013,07,23,02,14,15.70
2013,07,23,02,15,15.70
2013,07,23,02,16,15.70
2013,07,23,02,17,15.70
2013,07,23,02,18,15.70
2013,07,23,02,19,15.70
2013,07,23,02,20,15.70
2013,07,23,02,21,15.70
2013,07,23,02,22,15.70
2013,07,23,02,23,15.70
2013,07,23,02,24,15.70
2013,07,23,02,25,15.70
2013,07,23,02,26,15.80
2013,07,23,02,27,15.80
2013,07,23,02,28,15.80
2013,07,23,02,29,15.80
2013,07,23,02,30,15.80
2013,07,23,02,31,15.80
2013,07,23,02,32,15.80
2013,07,23,02,33,15.80
2013,07,23,02,34,15.80
2013,07,23,02,35,15.80
2013,07,23,02,36,15.80
2013,07,23,02,37,15.70
2013,07,23,02,38,15.70
2013,07,23,02,39,15.70
2013,07,23,02,40,15.70
2013,07,23,02,41,15.70
2013,07,23,02,42,15.60
2013,07,23,02,43,15.60
2013,07,23,02,44,15.60
2013,07,23,02,45,15.60
2013,07,23,02,46,15.50
2013,07,23,02,47,15.50
2013,07,23,02,48,15.50
2013,07,23,02,49,15.40
2013,07,23,02,50,15.40
2013,07,23,02,51,15.50
2013,07,23,02,52,15.50
2013,07,23,02,53,15.50
2013,07,23,02,54,15.50
2013,07,23,02,55,15.50
2013,07,23,02,56,15.50
2013,07,23,02,57,15.50
2013,07,23,02,58,15.50
2013,07,23,02,59,15.40
2013,07,23,03,00,15.40
2013,07,23,03,01,15.40
2013,07,23,03,02,15.40
2013,07,23,03,03,15.40
2013,07,23,03,06,15.30
2013,07,23,03,07,15.30
2013,07,23,03,08,15.30
2013,07,23,03,09,15.30
2013,07,23,03,10,15.30
2013,07,23,03,11,15.20
2013,07,23,03,12,15.20
2013,07,23,03,13,15.20
2013,07,23,03,14,15.20
2013,07,23,03,15,15.10
2013,07,23,03,16,15.10
2013,07,23,03,17,15.10
2013,07,23,03,18,15.00
2013,07,23,03,19,15.00
2013,07,23,03,20,15.00
2013,07,23,03,21,15.00
2013,07,23,03,22,15.00
2013,07,23,03,23,15.00
2013,07,23,03,24,15.00
2013,07,23,03,25,15.00
2013,07,23,03,26,15.00
2013,07,23,03,27,15.00
2013,07,23,03,28,15.00
2013,07,23,03,29,15.00
2013,07,23,03,30,15.00
2013,07,23,03,31,15.00
2013,07,23,03,32,15.00
2013,07,23,03,33,15.00
2013,07,23,03,34,15.00
2013,07,23,03,35,15.00
2013,07,23,03,36,15.00
2013,07,23,03,37,15.00
2013,07,23,03,38,15.00
2013,07,23,03,39,15.00
2013,07,23,03,40,15.00
2013,07,23,03,41,15.00
2013,07,23,03,42,15.00
2013,07,23,03,43,15.00
2013,07,23,03,44,15.00
2013,07,23,03,45,15.00
2013,07,23,03,46,15.00
2013,07,23,03,47,14.90
2013,07,23,03,48,14.90
2013,07,23,03,49,14.90
2013,07,23,03,50,14.90
2013,07,23,03,51,14.90
2013,07,23,03,52,14.90
2013,07,23,03,53,14.90
2013,07,23,03,54,14.90
2013,07,23,03,55,14.90
2013,07,23,03,56,14.90
2013,07,23,03,57,14.90
2013,07,23,03,58,14.90
2013,07,23,03,59,14.90
2013,07,23,04,00,14.90
2013,07,23,04,01,14.90
2013,07,23,04,02,14.90
2013,07,23,04,03,14.80
2013,07,23,04,04,14.80
2013,07,23,04,05,14.80
2013,07,23,04,06,14.80
2013,07,23,04,07,14.80
2013,07,23,04,08,14.80
2013,07,23,04,09,14.80
2013,07,23,04,10,14.80
2013,07,23,04,11,14.80
2013,07,23,04,12,14.80
2013,07,23,04,13,14.70
2013,07,23,04,14,14.70
2013,07,23,04,15,14.70
2013,07,23,04,16,14.70
2013,07,23,04,17,14.70
2013,07,23,04,18,14.70
2013,07,23,04,19,14.70
2013,07,23,04,20,14.70
2013,07,23,04,21,14.70
2013,07,23,04,22,14.60
2013,07,23,04,23,14.60
2013,07,23,04,24,14.60
2013,07,23,04,25,14.60
2013,07,23,04,26,14.60
2013,07,23,04,27,14.60
2013,07,23,04,28,14.60
2013,07,23,04,29,14.60
2013,07,23,04,30,14.60
2013,07,23,04,31,14.60
2013,07,23,04,32,14.50
2013,07,23,04,33,14.50
2013,07,23,04,34,14.50
2013,07,23,04,35,14.50
2013,07,23,04,36,14.50
2013,07,23,04,37,14.50
2013,07,23,04,38,14.50
2013,07,23,04,39,14.50
2013,07,23,04,40,14.50
2013,07,23,04,41,14.40
2013,07,23,04,42,14.40
2013,07,23,04,43,14.40
2013,07,23,04,44,14.40
2013,07,23,04,45,14.40
2013,07,23,04,46,14.40
2013,07,23,04,47,14.40
2013,07,23,04,48,14.40
2013,07,23,04,49,14.40
2013,07,23,04,50,14.40
2013,07,23,04,51,14.40
2013,07,23,04,52,14.40
2013,07,23,04,53,14.40
2013,07,23,04,54,14.40
2013,07,23,04,55,14.40
2013,07,23,04,56,14.40
2013,07,23,04,57,14.40
2013,07,23,04,58,14.40
2013,07,23,04,59,14.40
2013,07,23,05,00,14.40
2013,07,23,05,01,14.40
2013,07,23,05,02,14.40
2013,07,23,05,03,14.40
2013,07,23,05,04,14.30
2013,07,23,05,05,14.30
2013,07,23,05,06,14.30
2013,07,23,05,07,14.30
2013,07,23,05,08,14.30
2013,07,23,05,09,14.30
2013,07,23,05,10,14.30
2013,07,23,05,11,14.30
2013,07,23,05,12,14.30
2013,07,23,05,13,14.30
2013,07,23,05,14,14.30
2013,07,23,05,15,14.30
2013,07,23,05,16,14.30
2013,07,23,05,17,14.30
2013,07,23,05,18,14.30
2013,07,23,05,19,14.20
2013,07,23,05,20,14.20
2013,07,23,05,21,14.20
2013,07,23,05,22,14.20
2013,07,23,05,23,14.20
2013,07,23,05,24,14.20
2013,07,23,05,25,14.20
2013,07,23,05,26,14.20
2013,07,23,05,27,14.20
2013,07,23,05,28,14.20
2013,07,23,05,29,14.20
2013,07,23,05,30,14.20
2013,07,23,05,31,14.20
2013,07,23,05,32,14.20
2013,07,23,05,33,14.20
2013,07,23,05,34,14.20
2013,07,23,05,35,14.20
2013,07,23,05,36,14.20
2013,07,23,05,37,14.20
2013,07,23,05,38,14.20
2013,07,23,05,39,14.20
2013,07,23,05,40,14.20
2013,07,23,05,41,14.20
2013,07,23,05,42,14.10
2013,07,23,05,43,14.10
2013,07,23,05,44,14.10
2013,07,23,05,45,14.10
2013,07,23,05,46,14.10
2013,07,23,05,47,14.10
2013,07,23,05,48,14.10
2013,07,23,05,49,14.10
2013,07,23,05,50,14.10
2013,07,23,05,51,14.10
2013,07,23,05,52,14.10
2013,07,23,05,53,14.10
2013,07,23,05,54,14.10
2013,07,23,05,55,14.10
2013,07,23,05,56,14.10
2013,07,23,05,57,14.10
2013,07,23,05,58,14.10
2013,07,23,05,59,14.10
2013,07,23,06,00,14.10
2013,07,23,06,01,14.10
2013,07,23,06,02,14.10
2013,07,23,06,03,14.10
2013,07,23,06,04,14.10
2013,07,23,06,05,14.00
2013,07,23,06,06,14.00
2013,07,23,06,07,14.00
2013,07,23,06,08,14.00
2013,07,23,06,09,14.00
2013,07,23,06,10,14.00
2013,07,23,06,11,14.00
2013,07,23,06,12,14.00
2013,07,23,06,13,14.00
2013,07,23,06,14,14.00
2013,07,23,06,15,14.00
2013,07,23,06,16,14.00
2013,07,23,06,17,14.00
2013,07,23,06,18,14.00
2013,07,23,06,19,14.00
2013,07,23,06,20,14.00
2013,07,23,06,21,14.10
2013,07,23,06,22,14.10
2013,07,23,06,23,14.10
2013,07,23,06,24,14.10
2013,07,23,06,25,14.10
2013,07,23,06,26,14.10
2013,07,23,06,27,14.10
2013,07,23,06,28,14.10
2013,07,23,06,29,14.10
2013,07,23,06,30,14.10
2013,07,23,06,31,14.10
2013,07,23,06,32,14.10
2013,07,23,06,33,14.10
2013,07,23,06,34,14.10
2013,07,23,06,35,14.10
2013,07,23,06,36,14.10
2013,07,23,06,37,14.10
2013,07,23,06,38,14.10
2013,07,23,06,39,14.10
2013,07,23,06,40,14.10
2013,07,23,06,41,14.10
2013,07,23,06,42,14.10
2013,07,23,06,43,14.10
2013,07,23,06,44,14.10
2013,07,23,06,45,14.10
2013,07,23,06,46,14.10
2013,07,23,06,47,14.10
2013,07,23,06,48,14.10
2013,07,23,06,49,14.10
2013,07,23,06,50,14.10
2013,07,23,06,51,14.10
2013,07,23,06,52,14.10
2013,07,23,06,53,14.10
2013,07,23,06,54,14.10
2013,07,23,06,55,14.10
2013,07,23,06,56,14.10
2013,07,23,06,57,14.10
2013,07,23,06,58,14.10
2013,07,23,06,59,14.10
2013,07,23,07,00,14.10
2013,07,23,07,01,14.10
2013,07,23,07,02,14.10
2013,07,23,07,03,14.10
2013,07,23,07,04,14.10
2013,07,23,07,05,14.10
2013,07,23,07,06,14.10
2013,07,23,07,07,14.10
2013,07,23,07,08,14.10
2013,07,23,07,09,14.10
2013,07,23,07,10,14.10
2013,07,23,07,11,14.10
2013,07,23,07,12,14.10
2013,07,23,07,13,14.10
2013,07,23,07,14,14.10
2013,07,23,07,15,14.10
2013,07,23,07,16,14.10
2013,07,23,07,17,14.10
2013,07,23,07,18,14.10
2013,07,23,07,19,14.10
2013,07,23,07,20,14.10
2013,07,23,07,21,14.10
2013,07,23,07,22,14.20
2013,07,23,07,23,14.20
2013,07,23,07,24,14.20
2013,07,23,07,25,14.20
2013,07,23,07,26,14.20
2013,07,23,07,27,14.20
2013,07,23,07,28,14.20
2013,07,23,07,29,14.20
2013,07,23,07,30,14.20
2013,07,23,07,31,14.20
2013,07,23,07,32,14.20
2013,07,23,07,33,14.20
2013,07,23,07,34,14.20
2013,07,23,07,35,14.30
2013,07,23,07,36,14.30
2013,07,23,07,37,14.30
2013,07,23,07,38,14.30
2013,07,23,07,39,14.30
2013,07,23,07,40,14.30
2013,07,23,07,41,14.30
2013,07,23,07,42,14.30
2013,07,23,07,43,14.30
2013,07,23,07,44,14.30
2013,07,23,07,45,14.30
2013,07,23,07,46,14.40
2013,07,23,07,47,14.40
2013,07,23,07,48,14.40
2013,07,23,07,49,14.40
2013,07,23,07,50,14.40
2013,07,23,07,51,14.40
2013,07,23,07,52,14.40
2013,07,23,07,53,14.50
2013,07,23,07,54,14.50
2013,07,23,07,55,14.50
2013,07,23,07,56,14.50
2013,07,23,07,57,14.60
2013,07,23,07,58,14.60
2013,07,23,07,59,14.60
2013,07,23,08,00,14.60
2013,07,23,08,01,14.60
2013,07,23,08,02,14.60
2013,07,23,08,03,14.70
2013,07,23,08,04,14.70
2013,07,23,08,05,14.70
2013,07,23,08,06,14.70
2013,07,23,08,07,14.70
2013,07,23,08,08,14.80
2013,07,23,08,09,14.80
2013,07,23,08,10,14.80
2013,07,23,08,11,14.80
2013,07,23,08,12,14.90
2013,07,23,08,13,14.90
2013,07,23,08,14,14.90
2013,07,23,08,15,15.00
2013,07,23,08,16,15.00
2013,07,23,08,17,15.00
2013,07,23,08,18,15.00
2013,07,23,08,19,15.00
2013,07,23,08,20,15.00
2013,07,23,08,21,15.00
2013,07,23,08,22,15.00
2013,07,23,08,23,15.00
2013,07,23,08,24,15.00
2013,07,23,08,25,15.00
2013,07,23,08,26,15.00
2013,07,23,08,27,15.00
2013,07,23,08,28,15.10
2013,07,23,08,29,15.10
2013,07,23,08,30,15.20
2013,07,23,08,31,15.20
2013,07,23,08,32,15.20
2013,07,23,08,33,15.20
2013,07,23,08,34,15.30
2013,07,23,08,35,15.30
2013,07,23,08,36,15.30
2013,07,23,08,37,15.30
2013,07,23,08,38,15.40
2013,07,23,08,39,15.40
2013,07,23,08,40,15.40
2013,07,23,08,41,15.40
2013,07,23,08,42,15.40
2013,07,23,08,43,15.40
2013,07,23,08,44,15.40
2013,07,23,08,45,15.50
2013,07,23,08,46,15.50
2013,07,23,08,47,15.50
2013,07,23,08,48,15.60
2013,07,23,08,49,15.70
2013,07,23,08,50,15.80
2013,07,23,08,51,15.80
2013,07,23,08,52,15.90
2013,07,23,08,53,16.00
2013,07,23,08,54,16.00
2013,07,23,08,55,16.10
2013,07,23,08,56,16.20
2013,07,23,08,57,16.20
2013,07,23,08,58,16.30
2013,07,23,08,59,16.30
2013,07,23,09,00,16.40
2013,07,23,09,01,16.40
2013,07,23,09,02,16.40
2013,07,23,09,03,16.50
2013,07,23,09,04,16.60
2013,07,23,09,05,16.60
2013,07,23,09,06,16.70
2013,07,23,09,07,16.70
2013,07,23,09,08,16.80
2013,07,23,09,09,16.80
2013,07,23,09,10,16.80
2013,07,23,09,11,16.90
2013,07,23,09,12,17.00
2013,07,23,09,13,17.00
2013,07,23,09,14,17.10
2013,07,23,09,15,17.10
2013,07,23,09,16,17.20
2013,07,23,09,17,17.30
2013,07,23,09,18,17.30
2013,07,23,09,19,17.40
2013,07,23,09,20,17.40
2013,07,23,09,21,17.50
2013,07,23,09,22,17.60
2013,07,23,09,23,17.60
2013,07,23,09,24,17.70
2013,07,23,09,25,17.80
2013,07,23,09,26,17.80
2013,07,23,09,27,17.90
2013,07,23,09,28,18.00
2013,07,23,09,29,18.10
2013,07,23,09,30,18.20
2013,07,23,09,31,18.20
2013,07,23,09,32,18.30
2013,07,23,09,33,18.40
2013,07,23,09,34,18.50
2013,07,23,09,35,18.60
2013,07,23,09,36,18.70
2013,07,23,09,37,18.80
2013,07,23,09,38,18.90
2013,07,23,09,39,19.00
2013,07,23,09,40,19.10
2013,07,23,09,41,19.20
2013,07,23,09,42,19.30
2013,07,23,09,43,19.30
2013,07,23,09,44,19.40
2013,07,23,09,45,19.50
2013,07,23,09,46,19.60
2013,07,23,09,47,19.70
2013,07,23,09,48,19.80
2013,07,23,09,49,19.90
2013,07,23,09,50,19.90
2013,07,23,09,51,20.00
2013,07,23,09,52,20.10
2013,07,23,09,53,20.20
2013,07,23,09,54,20.30
2013,07,23,09,55,20.30
2013,07,23,09,56,20.40
2013,07,23,09,57,20.50
2013,07,23,09,58,20.60
2013,07,23,09,59,20.60
2013,07,23,10,00,20.70
2013,07,23,10,01,20.70
2013,07,23,10,02,20.80
2013,07,23,10,03,20.80
2013,07,23,10,04,20.80
2013,07,23,10,05,20.80
2013,07,23,10,06,20.90
2013,07,23,10,07,20.90
2013,07,23,10,08,20.90
2013,07,23,10,09,20.90
2013,07,23,10,10,20.90
2013,07,23,10,11,20.90
2013,07,23,10,12,20.90
2013,07,23,10,13,20.90
2013,07,23,10,14,20.90
2013,07,23,10,15,20.90
2013,07,23,10,16,20.90
2013,07,23,10,17,20.90
2013,07,23,10,18,20.90
2013,07,23,10,19,20.90
2013,07,23,10,20,20.90
2013,07,23,10,21,20.90
2013,07,23,10,22,20.90
2013,07,23,10,23,20.90
2013,07,23,10,24,20.90
2013,07,23,10,25,20.90
2013,07,23,10,26,20.90
2013,07,23,10,27,20.90
2013,07,23,10,28,20.90
2013,07,23,10,29,20.90
2013,07,23,10,30,20.90
2013,07,23,10,31,20.90
2013,07,23,10,32,20.90
2013,07,23,10,33,20.90
2013,07,23,10,34,20.90
2013,07,23,10,35,20.90
2013,07,23,10,36,20.90
2013,07,23,10,37,20.90
2013,07,23,10,38,21.00
2013,07,23,10,39,21.00
2013,07,23,10,40,21.00
2013,07,23,10,41,21.10
2013,07,23,10,42,21.10
2013,07,23,10,43,21.20
2013,07,23,10,44,21.20
2013,07,23,10,45,21.30
2013,07,23,10,46,21.30
2013,07,23,10,47,21.40
2013,07,23,10,48,21.40
2013,07,23,10,49,21.50
2013,07,23,10,50,21.60
2013,07,23,10,51,21.60
2013,07,23,10,52,21.70
2013,07,23,10,53,21.80
2013,07,23,10,54,21.90
2013,07,23,10,55,21.90
2013,07,23,10,56,22.00
2013,07,23,10,57,22.00
2013,07,23,10,58,22.10
2013,07,23,10,59,22.10
2013,07,23,11,00,22.20
2013,07,23,11,01,22.20
2013,07,23,11,02,22.30
2013,07,23,11,03,22.30
2013,07,23,11,04,22.40
2013,07,23,11,05,22.50
2013,07,23,11,06,22.60
2013,07,23,11,07,22.70
2013,07,23,11,08,22.70
2013,07,23,11,09,22.70
2013,07,23,11,10,22.70
2013,07,23,11,11,22.80
2013,07,23,11,12,22.80
2013,07,23,11,13,22.80
2013,07,23,11,14,22.80
2013,07,23,11,15,22.80
2013,07,23,11,16,22.80
2013,07,23,11,17,22.90
2013,07,23,11,18,22.90
2013,07,23,11,19,22.90
2013,07,23,11,20,22.90
2013,07,23,11,21,22.90
2013,07,23,11,22,22.90
2013,07,23,11,23,22.80
2013,07,23,11,24,22.90
2013,07,23,11,25,22.90
2013,07,23,11,26,22.90
2013,07,23,11,27,22.90
2013,07,23,11,28,22.90
2013,07,23,11,29,23.00
2013,07,23,11,30,23.00
2013,07,23,11,31,23.10
2013,07,23,11,32,23.10
2013,07,23,11,33,23.10
2013,07,23,11,34,23.20
2013,07,23,11,35,23.20
2013,07,23,11,36,23.20
2013,07,23,11,37,23.20
2013,07,23,11,38,23.20
2013,07,23,11,39,23.30
2013,07,23,11,40,23.30
2013,07,23,11,41,23.30
2013,07,23,11,42,23.40
2013,07,23,11,43,23.40
2013,07,23,11,44,23.50
2013,07,23,11,45,23.50
2013,07,23,11,46,23.60
2013,07,23,11,47,23.60
2013,07,23,11,48,23.70
2013,07,23,11,49,23.70
2013,07,23,11,50,23.70
2013,07,23,11,51,23.80
2013,07,23,11,52,23.80
2013,07,23,11,53,23.90
2013,07,23,11,54,24.00
2013,07,23,11,55,24.00
2013,07,23,11,56,24.10
2013,07,23,11,57,24.10
2013,07,23,11,58,24.10
2013,07,23,11,59,24.20
2013,07,23,12,00,24.20
2013,07,23,12,01,24.20
2013,07,23,12,02,24.30
2013,07,23,12,03,24.30
2013,07,23,12,04,24.40
2013,07,23,12,05,24.40
2013,07,23,12,06,24.50
2013,07,23,12,07,24.50
2013,07,23,12,08,24.60
2013,07,23,12,09,24.60
2013,07,23,12,10,24.70
2013,07,23,12,11,24.70
2013,07,23,12,12,24.70
2013,07,23,12,13,24.70
2013,07,23,12,14,24.80
2013,07,23,12,15,24.80
2013,07,23,12,16,24.80
2013,07,23,12,17,24.80
2013,07,23,12,18,24.80
2013,07,23,12,19,24.80
2013,07,23,12,20,24.80
2013,07,23,12,21,24.80
2013,07,23,12,22,24.80
2013,07,23,12,23,24.90
2013,07,23,12,24,24.90
2013,07,23,12,25,25.00
2013,07,23,12,26,25.10
2013,07,23,12,27,25.10
2013,07,23,12,28,25.10
2013,07,23,12,29,25.20
2013,07,23,12,30,25.20
2013,07,23,12,31,25.20
2013,07,23,12,32,25.20
2013,07,23,12,33,25.20
2013,07,23,12,34,25.20
2013,07,23,12,35,25.20
2013,07,23,12,36,25.20
2013,07,23,12,37,25.20
2013,07,23,12,38,25.20
2013,07,23,12,39,25.20
2013,07,23,12,40,25.20
2013,07,23,12,41,25.30
2013,07,23,12,42,25.30
2013,07,23,12,43,25.40
2013,07,23,12,44,25.40
2013,07,23,12,45,25.40
2013,07,23,12,46,25.40
2013,07,23,12,47,25.40
2013,07,23,12,48,25.50
2013,07,23,12,49,25.50
2013,07,23,12,50,25.50
2013,07,23,12,51,25.60
2013,07,23,12,52,25.60
2013,07,23,12,53,25.70
2013,07,23,12,54,25.70
2013,07,23,12,55,25.80
2013,07,23,12,56,25.80
2013,07,23,12,57,25.80
2013,07,23,12,58,25.80
2013,07,23,12,59,25.70
2013,07,23,13,00,25.70
2013,07,23,13,01,25.70
2013,07,23,13,02,25.70
2013,07,23,13,03,25.70
2013,07,23,13,04,25.70
2013,07,23,13,05,25.70
2013,07,23,13,06,25.70
2013,07,23,13,07,25.70
2013,07,23,13,08,25.70
2013,07,23,13,09,25.60
2013,07,23,13,10,25.60
2013,07,23,13,11,25.60
2013,07,23,13,12,25.50
2013,07,23,13,13,25.50
2013,07,23,13,14,25.40
2013,07,23,13,15,25.40
2013,07,23,13,16,25.40
2013,07,23,13,17,25.40
2013,07,23,13,18,25.40
2013,07,23,13,19,25.40
2013,07,23,13,20,25.50
2013,07,23,13,21,25.50
2013,07,23,13,22,25.50
2013,07,23,13,23,25.60
2013,07,23,13,24,25.60
2013,07,23,13,25,25.70
2013,07,23,13,26,25.70
2013,07,23,13,27,25.80
2013,07,23,13,28,25.80
2013,07,23,13,29,25.80
2013,07,23,13,30,25.90
2013,07,23,13,31,25.90
2013,07,23,13,32,25.90
2013,07,23,13,33,25.90
2013,07,23,13,34,26.00
2013,07,23,13,35,26.00
2013,07,23,13,36,26.10
2013,07,23,13,37,26.10
2013,07,23,13,38,26.20
2013,07,23,13,39,26.20
2013,07,23,13,40,26.30
2013,07,23,13,41,26.30
2013,07,23,13,42,26.30
2013,07,23,13,43,26.40
2013,07,23,13,44,26.40
2013,07,23,13,45,26.40
2013,07,23,13,46,26.50
2013,07,23,13,47,26.50
2013,07,23,13,48,26.60
2013,07,23,13,49,26.60
2013,07,23,13,50,26.70
2013,07,23,13,51,26.70
2013,07,23,13,52,26.70
2013,07,23,13,53,26.70
2013,07,23,13,54,26.80
2013,07,23,13,55,26.80
2013,07,23,13,56,26.80
2013,07,23,13,57,26.80
2013,07,23,13,58,26.90
2013,07,23,13,59,26.90
2013,07,23,14,00,27.00
2013,07,23,14,01,27.10
2013,07,23,14,02,27.10
2013,07,23,14,03,27.20
2013,07,23,14,04,27.30
2013,07,23,14,05,27.30
2013,07,23,14,06,27.40
2013,07,23,14,07,27.50
2013,07,23,14,08,27.60
2013,07,23,14,09,27.70
2013,07,23,14,10,27.80
2013,07,23,14,11,27.90
2013,07,23,14,12,27.90
2013,07,23,14,13,28.00
2013,07,23,14,14,28.00
2013,07,23,14,15,28.00
2013,07,23,14,16,28.10
2013,07,23,14,17,28.10
2013,07,23,14,18,28.20
2013,07,23,14,19,28.10
2013,07,23,14,20,28.10
2013,07,23,14,21,28.10
2013,07,23,14,22,28.20
2013,07,23,14,23,28.20
2013,07,23,14,24,28.20
2013,07,23,14,25,28.20
2013,07,23,14,26,28.30
2013,07,23,14,27,28.30
2013,07,23,14,28,28.30
2013,07,23,14,29,28.30
2013,07,23,14,30,28.40
2013,07,23,14,31,28.50
2013,07,23,14,32,28.50
2013,07,23,14,33,28.60
2013,07,23,14,34,28.60
2013,07,23,14,35,28.70
2013,07,23,14,36,28.60
2013,07,23,14,37,28.60
2013,07,23,14,38,28.60
2013,07,23,14,39,28.60
2013,07,23,14,40,28.50
2013,07,23,14,41,28.50
2013,07,23,14,42,28.60
2013,07,23,14,43,28.60
2013,07,23,14,44,28.60
2013,07,23,14,45,28.60
2013,07,23,14,46,28.60
2013,07,23,14,47,28.70
2013,07,23,14,48,28.70
2013,07,23,14,49,28.80
2013,07,23,14,50,28.90
2013,07,23,14,51,28.90
2013,07,23,14,52,29.00
2013,07,23,14,53,29.00
2013,07,23,14,54,29.10
2013,07,23,14,55,29.10
2013,07,23,14,56,29.20
2013,07,23,14,57,29.20
2013,07,23,14,58,29.30
2013,07,23,14,59,29.40
2013,07,23,15,00,29.50
2013,07,23,15,01,29.60
2013,07,23,15,02,29.60
2013,07,23,15,03,29.60
2013,07,23,15,04,29.60
2013,07,23,15,05,29.60
2013,07,23,15,06,29.70
2013,07,23,15,07,29.80
2013,07,23,15,08,29.80
2013,07,23,15,09,29.80
2013,07,23,15,10,29.90
2013,07,23,15,11,29.90
2013,07,23,15,12,29.90
2013,07,23,15,13,30.00
2013,07,23,15,14,30.10
2013,07,23,15,15,30.10
2013,07,23,15,16,30.20
2013,07,23,15,17,30.20
2013,07,23,15,18,30.20
2013,07,23,15,19,30.20
2013,07,23,15,20,30.10
2013,07,23,15,21,30.10
2013,07,23,15,22,30.20
2013,07,23,15,23,30.20
2013,07,23,15,24,30.20
2013,07,23,15,25,30.30
2013,07,23,15,26,30.30
2013,07,23,15,27,30.30
2013,07,23,15,28,30.30
2013,07,23,15,29,30.30
2013,07,23,15,30,30.30
2013,07,23,15,31,30.40
2013,07,23,15,32,30.40
2013,07,23,15,33,30.40
2013,07,23,15,34,30.40
2013,07,23,15,35,30.40
2013,07,23,15,36,30.30
2013,07,23,15,37,30.30
2013,07,23,15,38,30.30
2013,07,23,15,39,30.30
2013,07,23,15,40,30.30
2013,07,23,15,41,30.40
2013,07,23,15,42,30.40
2013,07,23,15,43,30.40
2013,07,23,15,44,30.30
2013,07,23,15,45,30.30
2013,07,23,15,46,30.20
2013,07,23,15,47,30.20
2013,07,23,15,48,30.20
2013,07,23,15,49,30.20
2013,07,23,15,50,30.30
2013,07,23,15,51,30.30
2013,07,23,15,52,30.30
2013,07,23,15,53,30.40
2013,07,23,15,54,30.40
2013,07,23,15,55,30.50
2013,07,23,15,56,30.60
2013,07,23,15,57,30.60
2013,07,23,15,58,30.60
2013,07,23,15,59,30.70
2013,07,23,16,00,30.70
2013,07,23,16,01,30.80
2013,07,23,16,02,30.80
2013,07,23,16,03,30.90
2013,07,23,16,04,30.90
2013,07,23,16,05,31.00
2013,07,23,16,06,31.10
2013,07,23,16,07,31.10
2013,07,23,16,08,31.20
2013,07,23,16,09,31.20
2013,07,23,16,10,31.20
2013,07,23,16,11,31.20
2013,07,23,16,12,31.10
2013,07,23,16,13,31.20
2013,07,23,16,14,31.20
2013,07,23,16,15,31.20
2013,07,23,16,16,31.10
2013,07,23,16,17,31.10
2013,07,23,16,18,31.10
2013,07,23,16,19,31.00
2013,07,23,16,20,30.90
2013,07,23,16,21,30.80
2013,07,23,16,22,30.70
2013,07,23,16,23,30.70
2013,07,23,16,24,30.70
2013,07,23,16,25,30.60
2013,07,23,16,26,30.60
2013,07,23,16,27,30.50
2013,07,23,16,28,30.40
2013,07,23,16,29,30.30
2013,07,23,16,30,30.20
2013,07,23,16,31,30.00
2013,07,23,16,32,29.90
2013,07,23,16,33,29.80
2013,07,23,16,34,29.70
2013,07,23,16,35,29.60
2013,07,23,16,36,29.50
2013,07,23,16,37,29.40
2013,07,23,16,38,29.30
2013,07,23,16,39,29.20
2013,07,23,16,40,29.10
2013,07,23,16,41,29.10
2013,07,23,16,42,29.10
2013,07,23,16,43,29.00
2013,07,23,16,44,29.00
2013,07,23,16,45,29.00
2013,07,23,16,46,29.00
2013,07,23,16,47,29.00
2013,07,23,16,48,29.00
2013,07,23,16,49,28.90
2013,07,23,16,50,28.90
2013,07,23,16,51,28.80
2013,07,23,16,52,28.80
2013,07,23,16,53,28.70
2013,07,23,16,54,28.70
2013,07,23,16,55,28.60
2013,07,23,16,56,28.60
2013,07,23,16,57,28.60
2013,07,23,16,58,28.60
2013,07,23,16,59,28.50
2013,07,23,17,00,28.50
2013,07,23,17,01,28.50
2013,07,23,17,02,28.40
2013,07,23,17,03,28.40
2013,07,23,17,04,28.40
2013,07,23,17,05,28.40
2013,07,23,17,06,28.40
2013,07,23,17,07,28.40
2013,07,23,17,08,28.40
2013,07,23,17,09,28.40
2013,07,23,17,10,28.40
2013,07,23,17,11,28.40
2013,07,23,17,12,28.40
2013,07,23,17,13,28.50
2013,07,23,17,14,28.50
2013,07,23,17,15,28.50
2013,07,23,17,16,28.50
2013,07,23,17,17,28.50
2013,07,23,17,18,28.50
2013,07,23,17,19,28.40
2013,07,23,17,20,28.40
2013,07,23,17,21,28.40